EW3232 Weather Reports


Display with metric or nautical units.
time (UTC)temp
F
wind
direction
speed
MPH
gust
MPH
rain 1hr
in
rain 24hr
in
rain mn
in
humidity
%
barometer
mb
20260505073200 60 285 0.0 2.0 0.00 0.24 0.00 74 1011.0
20260505071644 57 244 0.0 4.0 0.00 0.24 0.00 79 1011.1
20260505070101 56 224 1.0 4.0 0.00 0.24 0.00 80 1010.9
20260505064514 54 237 2.0 7.0 0.00 0.24 0.00 82 1011.0
20260505063017 53 239 3.0 7.0 0.00 0.24 0.00 85 1010.9
20260505061518 51 165 0.0 3.0 0.00 0.24 0.00 94 1010.9
20260505060122 49 275 1.0 2.0 0.00 0.24 0.00 93 1010.9
20260505054539 49 264 3.0 4.0 0.00 0.24 0.00 94 1011.0
20260505051637 47 264 0.0 4.0 0.00 0.24 0.00 94 1010.9
20260505050126 47 277 1.0 2.0 0.00 0.24 0.00 93 1010.9
20260505041601 48 271 2.0 3.0 0.00 0.24 0.00 92 1010.9
20260505040015 49 273 1.0 2.0 0.00 0.24 0.00 92 1010.8
20260505034522 49 269 1.0 3.0 0.00 0.24 0.00 92 1010.9
20260505033016 50 254 2.0 3.0 0.00 0.24 0.00 92 1011.1
20260505030124 50 270 0.0 2.0 0.00 0.24 0.00 93 1011.3
20260505024525 49 352 2.0 3.0 0.00 0.24 0.00 93 1011.1
20260505021611 49 256 0.0 1.0 0.00 0.24 0.00 91 1011.0
20260505020020 50 283 2.0 3.0 0.00 0.24 0.00 90 1011.1
20260505013026 50 310 0.0 2.0 0.00 0.24 0.00 92 1011.3
20260505010055 49 259 1.0 3.0 0.00 0.24 0.00 93 1011.4
20260505004601 49 274 2.0 3.0 0.00 0.24 0.00 92 1011.8
20260505001632 50 283 2.0 6.0 0.00 0.24 0.00 90 1012.0
20260504234515 49 250 3.0 6.0 0.00 0.24 0.00 92 1012.0
20260504233003 50 263 1.0 4.0 0.00 0.24 0.00 91 1011.9
20260504231503 50 262 2.0 6.0 0.00 0.24 0.00 92 1012.0
20260504230022 50 268 2.0 3.0 0.00 0.24 0.00 92 1012.0
20260504224519 50 268 0.0 2.0 0.00 0.24 0.00 92 1012.0
20260504223044 50 258 2.0 6.0 0.00 0.24 0.00 93 1011.9
20260504221614 51 252 1.0 5.0 0.00 0.24 0.00 93 1012.1
20260504220004 51 260 0.0 4.0 0.00 0.24 0.24 94 1012.2
20260504214655 51 260 2.0 5.0 0.00 0.24 0.24 94 1012.1
20260504213124 51 262 3.0 5.0 0.00 0.24 0.24 94 1012.1
20260504211648 51 246 1.0 2.0 0.00 0.24 0.24 93 1012.1
20260504210050 52 246 0.0 2.0 0.00 0.24 0.24 93 1012.2
20260504204522 52 246 0.0 2.0 0.00 0.24 0.24 94 1012.1
20260504203123 53 246 2.0 4.0 0.00 0.24 0.24 94 1011.9
20260504201636 52 300 1.0 4.0 0.00 0.24 0.24 93 1011.8
20260504200012 53 262 2.0 6.0 0.00 0.24 0.24 93 1011.6
20260504194549 53 258 2.0 4.0 0.00 0.24 0.24 93 1011.5
20260504193126 53 282 1.0 6.0 0.00 0.24 0.24 93 1011.5
20260504190010 55 269 1.0 3.0 0.00 0.24 0.24 92 1011.1
20260504184621 56 358 1.0 3.0 0.00 0.24 0.24 90 1011.1
20260504183023 57 299 0.0 2.0 0.00 0.24 0.24 90 1010.9
20260504181643 58 347 0.0 4.0 0.01 0.24 0.24 85 1010.7
20260504174543 59 80 2.0 5.0 0.15 0.24 0.24 89 1010.7
20260504171626 58 161 2.0 6.0 0.15 0.23 0.23 89 1010.6
20260504140112 59 33 5.0 12.0 0.00 0.05 0.05 91 1010.5
20260504130151 61 129 3.0 8.0 0.00 0.05 0.05 83 1010.5
20260504120107 60 137 4.0 8.0 0.00 0.05 0.05 89 1011.3
20260504090125 58 97 4.0 7.0 0.00 0.28 0.00 86 1012.5
20260504081654 58 115 4.0 7.0 0.00 0.42 0.00 88 1012.3